Location: Mohawk View
(42.7837°N, 73.7885°W)
Time: 12:41:18
(UTC+00:00)

NOSS 2-2 (E) - Pass Details

Date: 17 June 2021
Orbit: 448 x 1757 km, 63.3° (Epoch: 24 July)

Event Time Altitude Azimuth Distance (km) Brightness Sun altitude
Exits shadow 07:55:57 15° 255° (WSW) 1,294 4.7 -12.0°
Maximum altitude 07:58:16 33° 314° (NW) 805 4.2 -11.7°
Drops below altitude 10° 08:01:40 10° 21° (NNE) 1,732 7.1 -11.2°
Sets 08:04:11 0° 31° (NNE) 2,753 8.7 -10.9°
